This is the latest recevied weather packets stored in our database for station/object PY2FGD-15. If no packets are shown the sender has not sent any weather packets the latest 10 day(s).
| Time | Temp. | Humidity | Pressure | Rain* | Wind** | Luminosity | Snow |
|---|---|---|---|---|---|---|---|
| 1777884603 | 10.56° C | 82% | 1019 hPa | 2.54 mm | - | - | - |
| 1777881603 | 10° C | 84% | 1018 hPa | 2.54 mm | - | - | - |
| 1777881003 | 10° C | 84% | 1018 hPa | 2.54 mm | - | - | - |
| 1777879803 | 10.56° C | 84% | 1018 hPa | 2.54 mm | - | - | - |
| 1777864203 | 14.44° C | 81% | 1021 hPa | 2.54 mm | - | - | - |
| 1777863603 | 14.44° C | 81% | 1021 hPa | 2.54 mm | - | - | - |
| 1777852803 | 13.89° C | 71% | 1021 hPa | 2.54 mm | - | - | - |
| 1777845008 | 13.33° C | 78% | 1020 hPa | 2.54 mm | - | - | - |
| 1777841403 | 15° C | 78% | 1020 hPa | 2.54 mm | - | - | - |
| 1777836603 | 15° C | 79% | 1020 hPa | 2.54 mm | - | - | - |
| 1777831204 | 15° C | 80% | 1020 hPa | 2.54 mm | - | - | - |
| 1777828203 | 13.89° C | 74% | 1021 hPa | 2.54 mm | - | - | - |
| 1777823404 | 16.67° C | 74% | 1022 hPa | 2.54 mm | - | - | - |
| 1777822803 | 17.22° C | 74% | 1022 hPa | 2.54 mm | - | - | - |
| 1777820405 | 18.33° C | 74% | 1022 hPa | 2.54 mm | - | - | - |
| 1777813804 | 17.22° C | 80% | 1022 hPa | 2.54 mm | - | - | - |
| 1777813209 | 17.22° C | 80% | 1022 hPa | 2.54 mm | - | - | - |
| 1777812003 | 14.44° C | 78% | 1021 hPa | 2.54 mm | - | - | - |
| 1777811404 | 14.44° C | 78% | 1021 hPa | 2.54 mm | - | - | - |
| 1777809605 | 15.56° C | 78% | 1021 hPa | 2.54 mm | - | - | - |
| 1777807804 | 16.67° C | 78% | 1021 hPa | 2.54 mm | - | - | - |
| 1777807204 | 17.22° C | 78% | 1020 hPa | 2.54 mm | - | - | - |
| 1777801803 | 16.67° C | 79% | 1020 hPa | 2.54 mm | - | - | - |
| 1777799403 | 15° C | 78% | 1019 hPa | 2.54 mm | - | - | - |
| 1777798203 | 15.56° C | 78% | 1019 hPa | 2.54 mm | - | - | - |
* Rain latest hour (hover to see other rain measurements)
** Current wind speed in m/s (hover to see current wind gust speed)